Year,Month,Day,Hour,Minute,Value (Times are PST for temperature in C)
2014,08,10,00,00,15.30
2014,08,10,00,01,15.30
2014,08,10,00,02,15.30
2014,08,10,00,03,15.30
2014,08,10,00,04,15.30
2014,08,10,00,05,15.30
2014,08,10,00,06,15.30
2014,08,10,00,07,15.30
2014,08,10,00,08,15.30
2014,08,10,00,09,15.20
2014,08,10,00,10,15.20
2014,08,10,00,11,15.20
2014,08,10,00,12,15.20
2014,08,10,00,13,15.10
2014,08,10,00,14,15.10
2014,08,10,00,15,15.00
2014,08,10,00,16,15.00
2014,08,10,00,17,15.00
2014,08,10,00,18,15.00
2014,08,10,00,19,15.00
2014,08,10,00,20,15.00
2014,08,10,00,21,15.00
2014,08,10,00,22,15.00
2014,08,10,00,23,15.00
2014,08,10,00,24,15.00
2014,08,10,00,25,15.00
2014,08,10,00,26,15.00
2014,08,10,00,27,15.00
2014,08,10,00,28,15.00
2014,08,10,00,29,15.00
2014,08,10,00,30,15.00
2014,08,10,00,31,15.00
2014,08,10,00,32,15.00
2014,08,10,00,33,15.00
2014,08,10,00,34,15.00
2014,08,10,00,35,15.00
2014,08,10,00,36,15.00
2014,08,10,00,37,14.90
2014,08,10,00,38,14.90
2014,08,10,00,39,14.90
2014,08,10,00,40,14.90
2014,08,10,00,41,15.00
2014,08,10,00,42,15.00
2014,08,10,00,43,15.00
2014,08,10,00,44,15.00
2014,08,10,00,45,15.00
2014,08,10,00,46,15.00
2014,08,10,00,47,15.00
2014,08,10,00,48,14.90
2014,08,10,00,49,14.90
2014,08,10,00,50,14.90
2014,08,10,00,51,14.90
2014,08,10,00,52,14.90
2014,08,10,00,53,14.90
2014,08,10,00,54,14.80
2014,08,10,00,55,14.80
2014,08,10,00,56,14.80
2014,08,10,00,57,14.80
2014,08,10,00,58,14.80
2014,08,10,00,59,14.80
2014,08,10,01,00,14.80
2014,08,10,01,01,14.70
2014,08,10,01,02,14.70
2014,08,10,01,03,14.70
2014,08,10,01,04,14.70
2014,08,10,01,05,14.70
2014,08,10,01,06,14.70
2014,08,10,01,07,14.70
2014,08,10,01,08,14.60
2014,08,10,01,09,14.60
2014,08,10,01,10,14.60
2014,08,10,01,11,14.60
2014,08,10,01,12,14.60
2014,08,10,01,13,14.60
2014,08,10,01,14,14.60
2014,08,10,01,15,14.50
2014,08,10,01,16,14.50
2014,08,10,01,17,14.50
2014,08,10,01,18,14.50
2014,08,10,01,19,14.50
2014,08,10,01,20,14.40
2014,08,10,01,21,14.40
2014,08,10,01,22,14.40
2014,08,10,01,23,14.40
2014,08,10,01,24,14.40
2014,08,10,01,25,14.40
2014,08,10,01,26,14.40
2014,08,10,01,27,14.40
2014,08,10,01,28,14.40
2014,08,10,01,29,14.40
2014,08,10,01,30,14.30
2014,08,10,01,31,14.30
2014,08,10,01,32,14.30
2014,08,10,01,33,14.30
2014,08,10,01,34,14.30
2014,08,10,01,35,14.30
2014,08,10,01,36,14.30
2014,08,10,01,37,14.30
2014,08,10,01,38,14.20
2014,08,10,01,39,14.20
2014,08,10,01,40,14.20
2014,08,10,01,41,14.20
2014,08,10,01,42,14.20
2014,08,10,01,43,14.20
2014,08,10,01,44,14.20
2014,08,10,01,45,14.20
2014,08,10,01,46,14.10
2014,08,10,01,47,14.10
2014,08,10,01,48,14.10
2014,08,10,01,49,14.10
2014,08,10,01,50,14.10
2014,08,10,01,51,14.10
2014,08,10,01,52,14.00
2014,08,10,01,53,14.00
2014,08,10,01,54,14.00
2014,08,10,01,55,14.00
2014,08,10,01,56,14.00
2014,08,10,01,57,14.00
2014,08,10,01,58,13.90
2014,08,10,01,59,13.90
2014,08,10,02,00,13.90
2014,08,10,02,01,13.90
2014,08,10,02,02,13.90
2014,08,10,02,03,13.90
2014,08,10,02,04,13.80
2014,08,10,02,05,13.80
2014,08,10,02,06,13.80
2014,08,10,02,07,13.80
2014,08,10,02,08,13.70
2014,08,10,02,09,13.70
2014,08,10,02,10,13.70
2014,08,10,02,11,13.70
2014,08,10,02,12,13.70
2014,08,10,02,13,13.70
2014,08,10,02,14,13.70
2014,08,10,02,15,13.70
2014,08,10,02,16,13.70
2014,08,10,02,17,13.60
2014,08,10,02,18,13.60
2014,08,10,02,19,13.60
2014,08,10,02,20,13.60
2014,08,10,02,21,13.60
2014,08,10,02,22,13.60
2014,08,10,02,23,13.50
2014,08,10,02,24,13.50
2014,08,10,02,25,13.50
2014,08,10,02,26,13.50
2014,08,10,02,27,13.50
2014,08,10,02,28,13.50
2014,08,10,02,29,13.50
2014,08,10,02,30,13.50
2014,08,10,02,31,13.40
2014,08,10,02,32,13.40
2014,08,10,02,33,13.40
2014,08,10,02,34,13.40
2014,08,10,02,35,13.40
2014,08,10,02,36,13.40
2014,08,10,02,37,13.40
2014,08,10,02,38,13.40
2014,08,10,02,39,13.30
2014,08,10,02,40,13.30
2014,08,10,02,41,13.30
2014,08,10,02,42,13.30
2014,08,10,02,43,13.30
2014,08,10,02,44,13.30
2014,08,10,02,45,13.30
2014,08,10,02,46,13.30
2014,08,10,02,47,13.30
2014,08,10,02,48,13.30
2014,08,10,02,49,13.20
2014,08,10,02,50,13.20
2014,08,10,02,51,13.20
2014,08,10,02,52,13.20
2014,08,10,02,53,13.20
2014,08,10,02,54,13.20
2014,08,10,02,55,13.20
2014,08,10,02,56,13.20
2014,08,10,02,57,13.20
2014,08,10,02,58,13.10
2014,08,10,02,59,13.10
2014,08,10,03,00,13.10
2014,08,10,03,01,13.10
2014,08,10,03,02,13.10
2014,08,10,03,03,13.00
2014,08,10,03,04,13.00
2014,08,10,03,05,13.00
2014,08,10,03,06,12.90
2014,08,10,03,07,12.90
2014,08,10,03,08,12.90
2014,08,10,03,09,13.00
2014,08,10,03,10,13.00
2014,08,10,03,11,12.90
2014,08,10,03,12,12.90
2014,08,10,03,13,12.90
2014,08,10,03,14,13.00
2014,08,10,03,15,13.00
2014,08,10,03,16,12.90
2014,08,10,03,17,12.90
2014,08,10,03,18,12.90
2014,08,10,03,19,12.90
2014,08,10,03,20,12.90
2014,08,10,03,21,13.00
2014,08,10,03,22,12.90
2014,08,10,03,23,12.90
2014,08,10,03,24,12.90
2014,08,10,03,25,12.90
2014,08,10,03,26,12.90
2014,08,10,03,27,12.90
2014,08,10,03,28,12.90
2014,08,10,03,29,12.90
2014,08,10,03,30,13.00
2014,08,10,03,31,13.00
2014,08,10,03,32,13.00
2014,08,10,03,33,13.00
2014,08,10,03,34,13.00
2014,08,10,03,35,13.10
2014,08,10,03,36,13.10
2014,08,10,03,37,13.10
2014,08,10,03,38,13.10
2014,08,10,03,39,13.10
2014,08,10,03,40,13.10
2014,08,10,03,41,13.10
2014,08,10,03,42,13.10
2014,08,10,03,43,13.10
2014,08,10,03,44,13.10
2014,08,10,03,45,13.10
2014,08,10,03,46,13.10
2014,08,10,03,47,13.10
2014,08,10,03,48,13.10
2014,08,10,03,49,13.10
2014,08,10,03,50,13.10
2014,08,10,03,51,13.10
2014,08,10,03,52,13.10
2014,08,10,03,53,13.10
2014,08,10,03,54,13.10
2014,08,10,03,55,13.10
2014,08,10,03,56,13.10
2014,08,10,03,57,13.10
2014,08,10,03,58,13.10
2014,08,10,03,59,13.10
2014,08,10,04,00,13.10
2014,08,10,04,01,13.10
2014,08,10,04,02,13.10
2014,08,10,04,03,13.10
2014,08,10,04,04,13.00
2014,08,10,04,05,13.00
2014,08,10,04,06,13.00
2014,08,10,04,07,13.00
2014,08,10,04,08,13.00
2014,08,10,04,09,13.00
2014,08,10,04,10,13.00
2014,08,10,04,11,13.00
2014,08,10,04,12,13.00
2014,08,10,04,13,13.00
2014,08,10,04,14,13.00
2014,08,10,04,15,13.00
2014,08,10,04,16,13.00
2014,08,10,04,17,12.90
2014,08,10,04,18,12.90
2014,08,10,04,19,12.90
2014,08,10,04,20,12.90
2014,08,10,04,21,12.90
2014,08,10,04,22,12.90
2014,08,10,04,23,12.80
2014,08,10,04,24,12.80
2014,08,10,04,25,12.80
2014,08,10,04,26,12.80
2014,08,10,04,27,12.80
2014,08,10,04,28,12.80
2014,08,10,04,29,12.90
2014,08,10,04,30,12.90
2014,08,10,04,31,12.90
2014,08,10,04,32,12.90
2014,08,10,04,33,12.90
2014,08,10,04,34,12.90
2014,08,10,04,35,12.90
2014,08,10,04,36,12.90
2014,08,10,04,37,12.90
2014,08,10,04,38,12.90
2014,08,10,04,39,12.90
2014,08,10,04,40,12.90
2014,08,10,04,41,12.90
2014,08,10,04,42,12.90
2014,08,10,04,43,13.00
2014,08,10,04,44,13.00
2014,08,10,04,45,13.00
2014,08,10,04,46,13.00
2014,08,10,04,47,12.90
2014,08,10,04,48,12.90
2014,08,10,04,49,13.00
2014,08,10,04,50,13.00
2014,08,10,04,51,13.00
2014,08,10,04,52,13.00
2014,08,10,04,53,13.00
2014,08,10,04,54,13.00
2014,08,10,04,55,13.00
2014,08,10,04,56,13.00
2014,08,10,04,57,13.00
2014,08,10,04,58,13.00
2014,08,10,04,59,12.90
2014,08,10,05,00,12.90
2014,08,10,05,01,12.90
2014,08,10,05,02,12.90
2014,08,10,05,03,12.90
2014,08,10,05,04,12.90
2014,08,10,05,05,12.90
2014,08,10,05,06,13.00
2014,08,10,05,07,13.00
2014,08,10,05,08,13.00
2014,08,10,05,09,13.00
2014,08,10,05,10,13.00
2014,08,10,05,11,13.00
2014,08,10,05,12,13.00
2014,08,10,05,13,13.10
2014,08,10,05,14,13.10
2014,08,10,05,15,13.10
2014,08,10,05,16,13.00
2014,08,10,05,17,13.10
2014,08,10,05,18,13.10
2014,08,10,05,19,13.10
2014,08,10,05,20,13.10
2014,08,10,05,21,13.10
2014,08,10,05,22,13.00
2014,08,10,05,23,13.00
2014,08,10,05,24,13.00
2014,08,10,05,25,13.00
2014,08,10,05,26,13.00
2014,08,10,05,27,13.00
2014,08,10,05,28,13.00
2014,08,10,05,29,13.00
2014,08,10,05,30,13.00
2014,08,10,05,31,12.90
2014,08,10,05,32,12.90
2014,08,10,05,33,12.90
2014,08,10,05,34,12.90
2014,08,10,05,35,12.90
2014,08,10,05,36,12.90
2014,08,10,05,37,13.00
2014,08,10,05,38,13.00
2014,08,10,05,39,13.00
2014,08,10,05,40,13.00
2014,08,10,05,41,13.00
2014,08,10,05,42,13.00
2014,08,10,05,43,13.00
2014,08,10,05,44,13.10
2014,08,10,05,45,13.10
2014,08,10,05,46,13.10
2014,08,10,05,47,13.10
2014,08,10,05,48,13.10
2014,08,10,05,49,13.10
2014,08,10,05,50,13.20
2014,08,10,05,51,13.20
2014,08,10,05,52,13.20
2014,08,10,05,53,13.20
2014,08,10,05,54,13.20
2014,08,10,05,55,13.20
2014,08,10,05,56,13.20
2014,08,10,05,57,13.30
2014,08,10,05,58,13.30
2014,08,10,05,59,13.30
2014,08,10,06,00,13.30
2014,08,10,06,01,13.30
2014,08,10,06,02,13.30
2014,08,10,06,03,13.30
2014,08,10,06,04,13.30
2014,08,10,06,05,13.30
2014,08,10,06,06,13.30
2014,08,10,06,07,13.30
2014,08,10,06,08,13.30
2014,08,10,06,09,13.30
2014,08,10,06,10,13.30
2014,08,10,06,11,13.30
2014,08,10,06,12,13.30
2014,08,10,06,13,13.30
2014,08,10,06,14,13.30
2014,08,10,06,15,13.40
2014,08,10,06,16,13.40
2014,08,10,06,17,13.50
2014,08,10,06,18,13.50
2014,08,10,06,19,13.50
2014,08,10,06,20,13.60
2014,08,10,06,21,13.60
2014,08,10,06,22,13.70
2014,08,10,06,23,13.70
2014,08,10,06,24,13.70
2014,08,10,06,25,13.70
2014,08,10,06,26,13.70
2014,08,10,06,27,13.70
2014,08,10,06,28,13.80
2014,08,10,06,29,13.80
2014,08,10,06,30,13.80
2014,08,10,06,31,13.90
2014,08,10,06,32,14.00
2014,08,10,06,33,14.00
2014,08,10,06,34,14.10
2014,08,10,06,35,14.10
2014,08,10,06,36,14.20
2014,08,10,06,37,14.20
2014,08,10,06,38,14.20
2014,08,10,06,39,14.20
2014,08,10,06,40,14.30
2014,08,10,06,41,14.30
2014,08,10,06,42,14.40
2014,08,10,06,43,14.50
2014,08,10,06,44,14.60
2014,08,10,06,45,14.60
2014,08,10,06,46,14.70
2014,08,10,06,47,14.70
2014,08,10,06,48,14.80
2014,08,10,06,49,14.90
2014,08,10,06,50,15.00
2014,08,10,06,51,15.00
2014,08,10,06,52,15.00
2014,08,10,06,53,15.00
2014,08,10,06,54,15.10
2014,08,10,06,55,15.10
2014,08,10,06,56,15.00
2014,08,10,06,57,15.00
2014,08,10,06,58,15.00
2014,08,10,06,59,15.00
2014,08,10,07,00,14.90
2014,08,10,07,01,14.80
2014,08,10,07,02,14.80
2014,08,10,07,03,14.80
2014,08,10,07,04,14.80
2014,08,10,07,05,14.70
2014,08,10,07,06,14.70
2014,08,10,07,07,14.60
2014,08,10,07,08,14.60
2014,08,10,07,09,14.60
2014,08,10,07,10,14.50
2014,08,10,07,11,14.50
2014,08,10,07,12,14.50
2014,08,10,07,13,14.50
2014,08,10,07,14,14.40
2014,08,10,07,15,14.40
2014,08,10,07,16,14.40
2014,08,10,07,17,14.40
2014,08,10,07,18,14.40
2014,08,10,07,19,14.40
2014,08,10,07,20,14.50
2014,08,10,07,21,14.50
2014,08,10,07,22,14.50
2014,08,10,07,23,14.50
2014,08,10,07,24,14.60
2014,08,10,07,25,14.60
2014,08,10,07,26,14.60
2014,08,10,07,27,14.70
2014,08,10,07,28,14.70
2014,08,10,07,29,14.70
2014,08,10,07,30,14.80
2014,08,10,07,31,14.80
2014,08,10,07,32,15.00
2014,08,10,07,33,15.00
2014,08,10,07,34,15.00
2014,08,10,07,35,15.00
2014,08,10,07,36,15.10
2014,08,10,07,37,15.20
2014,08,10,07,38,15.20
2014,08,10,07,39,15.20
2014,08,10,07,40,15.30
2014,08,10,07,41,15.30
2014,08,10,07,42,15.30
2014,08,10,07,43,15.40
2014,08,10,07,44,15.40
2014,08,10,07,45,15.50
2014,08,10,07,46,15.50
2014,08,10,07,47,15.60
2014,08,10,07,48,15.60
2014,08,10,07,49,15.70
2014,08,10,07,50,15.70
2014,08,10,07,51,15.80
2014,08,10,07,52,16.00
2014,08,10,07,53,16.10
2014,08,10,07,54,16.10
2014,08,10,07,55,16.20
2014,08,10,07,56,16.20
2014,08,10,07,57,16.20
2014,08,10,07,58,16.30
2014,08,10,07,59,16.30
2014,08,10,08,00,16.30
2014,08,10,08,01,16.30
2014,08,10,08,02,16.30
2014,08,10,08,03,16.40
2014,08,10,08,04,16.50
2014,08,10,08,05,16.50
2014,08,10,08,06,16.60
2014,08,10,08,07,16.60
2014,08,10,08,08,16.60
2014,08,10,08,09,16.70
2014,08,10,08,10,16.70
2014,08,10,08,11,16.70
2014,08,10,08,12,16.80
2014,08,10,08,13,16.90
2014,08,10,08,14,16.90
2014,08,10,08,15,16.90
2014,08,10,08,16,17.00
2014,08,10,08,17,17.00
2014,08,10,08,18,17.00
2014,08,10,08,19,17.10
2014,08,10,08,20,17.10
2014,08,10,08,21,17.10
2014,08,10,08,22,17.20
2014,08,10,08,23,17.30
2014,08,10,08,24,17.30
2014,08,10,08,25,17.40
2014,08,10,08,26,17.50
2014,08,10,08,27,17.60
2014,08,10,08,28,17.70
2014,08,10,08,29,17.80
2014,08,10,08,30,17.90
2014,08,10,08,31,18.00
2014,08,10,08,32,18.20
2014,08,10,08,33,18.30
2014,08,10,08,34,18.40
2014,08,10,08,35,18.50
2014,08,10,08,36,18.60
2014,08,10,08,37,18.70
2014,08,10,08,38,18.80
2014,08,10,08,39,18.90
2014,08,10,08,40,19.00
2014,08,10,08,41,19.00
2014,08,10,08,42,19.10
2014,08,10,08,43,19.10
2014,08,10,08,44,19.20
2014,08,10,08,45,19.30
2014,08,10,08,46,19.30
2014,08,10,08,47,19.40
2014,08,10,08,48,19.40
2014,08,10,08,49,19.50
2014,08,10,08,50,19.60
2014,08,10,08,51,19.60
2014,08,10,08,52,19.70
2014,08,10,08,53,19.80
2014,08,10,08,54,19.80
2014,08,10,08,55,19.90
2014,08,10,08,56,20.00
2014,08,10,08,57,20.10
2014,08,10,08,58,20.20
2014,08,10,08,59,20.30
2014,08,10,09,00,20.30
2014,08,10,09,01,20.40
2014,08,10,09,02,20.40
2014,08,10,09,03,20.40
2014,08,10,09,04,20.40
2014,08,10,09,05,20.50
2014,08,10,09,06,20.50
2014,08,10,09,07,20.60
2014,08,10,09,08,20.60
2014,08,10,09,09,20.70
2014,08,10,09,10,20.70
2014,08,10,09,11,20.80
2014,08,10,09,12,20.90
2014,08,10,09,13,20.90
2014,08,10,09,14,20.90
2014,08,10,09,15,21.00
2014,08,10,09,16,21.00
2014,08,10,09,17,21.00
2014,08,10,09,18,21.00
2014,08,10,09,19,21.00
2014,08,10,09,20,21.00
2014,08,10,09,21,21.00
2014,08,10,09,22,21.00
2014,08,10,09,23,21.00
2014,08,10,09,24,21.00
2014,08,10,09,25,21.10
2014,08,10,09,26,21.10
2014,08,10,09,27,21.10
2014,08,10,09,28,21.10
2014,08,10,09,29,21.10
2014,08,10,09,30,21.20
2014,08,10,09,31,21.20
2014,08,10,09,32,21.20
2014,08,10,09,33,21.20
2014,08,10,09,34,21.20
2014,08,10,09,35,21.20
2014,08,10,09,36,21.20
2014,08,10,09,37,21.20
2014,08,10,09,38,21.30
2014,08,10,09,39,21.30
2014,08,10,09,40,21.30
2014,08,10,09,41,21.30
2014,08,10,09,42,21.40
2014,08,10,09,43,21.40
2014,08,10,09,44,21.50
2014,08,10,09,45,21.60
2014,08,10,09,46,21.60
2014,08,10,09,47,21.70
2014,08,10,09,48,21.70
2014,08,10,09,49,21.80
2014,08,10,09,50,21.80
2014,08,10,09,51,21.80
2014,08,10,09,52,21.90
2014,08,10,09,53,21.90
2014,08,10,09,54,21.90
2014,08,10,09,55,21.90
2014,08,10,09,56,21.80
2014,08,10,09,57,21.80
2014,08,10,09,58,21.80
2014,08,10,09,59,21.80
2014,08,10,10,00,21.80
2014,08,10,10,01,21.80
2014,08,10,10,02,21.90
2014,08,10,10,03,21.90
2014,08,10,10,04,21.90
2014,08,10,10,05,21.90
2014,08,10,10,06,21.90
2014,08,10,10,07,21.90
2014,08,10,10,08,22.00
2014,08,10,10,09,22.00
2014,08,10,10,10,22.10
2014,08,10,10,11,22.10
2014,08,10,10,12,22.20
2014,08,10,10,13,22.30
2014,08,10,10,14,22.30
2014,08,10,10,15,22.40
2014,08,10,10,16,22.40
2014,08,10,10,17,22.40
2014,08,10,10,18,22.40
2014,08,10,10,19,22.40
2014,08,10,10,20,22.40
2014,08,10,10,21,22.40
2014,08,10,10,22,22.40
2014,08,10,10,23,22.30
2014,08,10,10,24,22.20
2014,08,10,10,25,22.20
2014,08,10,10,26,22.20
2014,08,10,10,27,22.20
2014,08,10,10,28,22.10
2014,08,10,10,29,22.10
2014,08,10,10,30,22.10
2014,08,10,10,31,22.00
2014,08,10,10,32,22.00
2014,08,10,10,33,22.10
2014,08,10,10,34,22.10
2014,08,10,10,35,22.10
2014,08,10,10,36,22.10
2014,08,10,10,37,22.20
2014,08,10,10,38,22.30
2014,08,10,10,39,22.30
2014,08,10,10,40,22.20
2014,08,10,10,41,22.20
2014,08,10,10,42,22.20
2014,08,10,10,43,22.20
2014,08,10,10,44,22.20
2014,08,10,10,45,22.30
2014,08,10,10,46,22.30
2014,08,10,10,47,22.40
2014,08,10,10,48,22.40
2014,08,10,10,49,22.50
2014,08,10,10,50,22.60
2014,08,10,10,51,22.70
2014,08,10,10,52,22.80
2014,08,10,10,53,22.80
2014,08,10,10,54,22.70
2014,08,10,10,55,22.70
2014,08,10,10,56,22.60
2014,08,10,10,57,22.60
2014,08,10,10,58,22.50
2014,08,10,10,59,22.40
2014,08,10,11,00,22.40
2014,08,10,11,01,22.40
2014,08,10,11,02,22.40
2014,08,10,11,03,22.50
2014,08,10,11,04,22.50
2014,08,10,11,05,22.60
2014,08,10,11,06,22.60
2014,08,10,11,07,22.70
2014,08,10,11,08,22.70
2014,08,10,11,09,22.70
2014,08,10,11,10,22.80
2014,08,10,11,11,22.90
2014,08,10,11,12,23.00
2014,08,10,11,13,23.20
2014,08,10,11,14,23.20
2014,08,10,11,15,23.30
2014,08,10,11,16,23.30
2014,08,10,11,17,23.30
2014,08,10,11,18,23.20
2014,08,10,11,19,23.20
2014,08,10,11,20,23.30
2014,08,10,11,21,23.40
2014,08,10,11,22,23.50
2014,08,10,11,23,23.50
2014,08,10,11,24,23.60
2014,08,10,11,25,23.70
2014,08,10,11,26,23.80
2014,08,10,11,27,23.80
2014,08,10,11,28,23.90
2014,08,10,11,29,24.00
2014,08,10,11,30,24.00
2014,08,10,11,31,24.00
2014,08,10,11,32,24.00
2014,08,10,11,33,24.10
2014,08,10,11,34,24.10
2014,08,10,11,35,24.10
2014,08,10,11,36,24.20
2014,08,10,11,37,24.30
2014,08,10,11,38,24.30
2014,08,10,11,39,24.30
2014,08,10,11,40,24.40
2014,08,10,11,41,24.40
2014,08,10,11,42,24.40
2014,08,10,11,43,24.50
2014,08,10,11,44,24.50
2014,08,10,11,45,24.60
2014,08,10,11,46,24.70
2014,08,10,11,47,24.70
2014,08,10,11,48,24.60
2014,08,10,11,49,24.60
2014,08,10,11,50,24.60
2014,08,10,11,51,24.70
2014,08,10,11,52,24.60
2014,08,10,11,53,24.50
2014,08,10,11,54,24.30
2014,08,10,11,55,24.20
2014,08,10,11,56,24.10
2014,08,10,11,57,23.90
2014,08,10,11,58,23.90
2014,08,10,11,59,23.90
2014,08,10,12,00,23.80
2014,08,10,12,01,23.80
2014,08,10,12,02,23.80
2014,08,10,12,03,23.80
2014,08,10,12,04,23.70
2014,08,10,12,05,23.60
2014,08,10,12,06,23.60
2014,08,10,12,07,23.70
2014,08,10,12,08,23.70
2014,08,10,12,09,23.90
2014,08,10,12,10,24.00
2014,08,10,12,11,24.10
2014,08,10,12,12,24.20
2014,08,10,12,13,24.30
2014,08,10,12,14,24.40
2014,08,10,12,15,24.40
2014,08,10,12,16,24.50
2014,08,10,12,17,24.50
2014,08,10,12,18,24.50
2014,08,10,12,19,24.50
2014,08,10,12,20,24.50
2014,08,10,12,21,24.50
2014,08,10,12,22,24.50
2014,08,10,12,23,24.50
2014,08,10,12,24,24.60
2014,08,10,12,25,24.70
2014,08,10,12,26,24.70
2014,08,10,12,27,24.80
2014,08,10,12,28,24.70
2014,08,10,12,29,24.60
2014,08,10,12,30,24.60
2014,08,10,12,31,24.60
2014,08,10,12,32,24.60
2014,08,10,12,33,24.60
2014,08,10,12,34,24.60
2014,08,10,12,35,24.60
2014,08,10,12,36,24.60
2014,08,10,12,37,24.60
2014,08,10,12,38,24.60
2014,08,10,12,39,24.60
2014,08,10,12,40,24.70
2014,08,10,12,41,24.70
2014,08,10,12,42,24.70
2014,08,10,12,43,24.80
2014,08,10,12,44,24.90
2014,08,10,12,45,24.90
2014,08,10,12,46,25.00
2014,08,10,12,47,25.20
2014,08,10,12,48,25.30
2014,08,10,12,49,25.40
2014,08,10,12,50,25.40
2014,08,10,12,51,25.40
2014,08,10,12,52,25.40
2014,08,10,12,53,25.30
2014,08,10,12,54,25.20
2014,08,10,12,55,25.10
2014,08,10,12,56,24.90
2014,08,10,12,57,24.90
2014,08,10,12,58,24.90
2014,08,10,12,59,24.90
2014,08,10,13,00,24.80
2014,08,10,13,01,24.70
2014,08,10,13,02,24.70
2014,08,10,13,03,24.60
2014,08,10,13,04,24.70
2014,08,10,13,05,24.70
2014,08,10,13,06,24.70
2014,08,10,13,07,24.70
2014,08,10,13,08,24.60
2014,08,10,13,09,24.50
2014,08,10,13,10,24.50
2014,08,10,13,11,24.40
2014,08,10,13,12,24.30
2014,08,10,13,13,24.30
2014,08,10,13,14,24.30
2014,08,10,13,15,24.30
2014,08,10,13,16,24.30
2014,08,10,13,17,24.30
2014,08,10,13,18,24.40
2014,08,10,13,19,24.40
2014,08,10,13,20,24.50
2014,08,10,13,21,24.50
2014,08,10,13,22,24.40
2014,08,10,13,23,24.40
2014,08,10,13,24,24.30
2014,08,10,13,25,24.30
2014,08,10,13,26,24.30
2014,08,10,13,27,24.40
2014,08,10,13,28,24.50
2014,08,10,13,29,24.60
2014,08,10,13,30,24.60
2014,08,10,13,31,24.60
2014,08,10,13,32,24.60
2014,08,10,13,33,24.60
2014,08,10,13,34,24.60
2014,08,10,13,35,24.80
2014,08,10,13,36,24.90
2014,08,10,13,37,25.10
2014,08,10,13,38,25.20
2014,08,10,13,39,25.40
2014,08,10,13,40,25.50
2014,08,10,13,41,25.70
2014,08,10,13,42,25.80
2014,08,10,13,43,25.80
2014,08,10,13,44,25.70
2014,08,10,13,45,25.70
2014,08,10,13,46,25.60
2014,08,10,13,47,25.60
2014,08,10,13,48,25.50
2014,08,10,13,49,25.40
2014,08,10,13,50,25.50
2014,08,10,13,51,25.50
2014,08,10,13,52,25.50
2014,08,10,13,53,25.60
2014,08,10,13,54,25.60
2014,08,10,13,55,25.60
2014,08,10,13,56,25.50
2014,08,10,13,57,25.30
2014,08,10,13,58,25.30
2014,08,10,13,59,25.30
2014,08,10,14,00,25.30
2014,08,10,14,01,25.30
2014,08,10,14,02,25.20
2014,08,10,14,03,25.30
2014,08,10,14,04,25.20
2014,08,10,14,05,25.20
2014,08,10,14,06,25.10
2014,08,10,14,07,25.10
2014,08,10,14,08,25.10
2014,08,10,14,09,25.20
2014,08,10,14,10,25.30
2014,08,10,14,11,25.40
2014,08,10,14,12,25.60
2014,08,10,14,13,25.70
2014,08,10,14,14,25.80
2014,08,10,14,15,25.80
2014,08,10,14,16,25.80
2014,08,10,14,17,25.80
2014,08,10,14,18,25.70
2014,08,10,14,19,25.70
2014,08,10,14,20,25.80
2014,08,10,14,21,25.90
2014,08,10,14,22,25.90
2014,08,10,14,23,25.90
2014,08,10,14,24,25.90
2014,08,10,14,25,25.90
2014,08,10,14,26,26.00
2014,08,10,14,27,26.00
2014,08,10,14,28,26.10
2014,08,10,14,29,26.20
2014,08,10,14,30,26.20
2014,08,10,14,31,26.30
2014,08,10,14,32,26.30
2014,08,10,14,33,26.30
2014,08,10,14,34,26.20
2014,08,10,14,35,26.30
2014,08,10,14,36,26.30
2014,08,10,14,37,26.40
2014,08,10,14,38,26.40
2014,08,10,14,39,26.50
2014,08,10,14,40,26.50
2014,08,10,14,41,26.60
2014,08,10,14,42,26.70
2014,08,10,14,43,26.70
2014,08,10,14,44,26.70
2014,08,10,14,45,26.60
2014,08,10,14,46,26.40
2014,08,10,14,47,26.30
2014,08,10,14,48,26.20
2014,08,10,14,49,26.10
2014,08,10,14,50,26.20
2014,08,10,14,51,26.20
2014,08,10,14,52,26.30
2014,08,10,14,53,26.30
2014,08,10,14,54,26.30
2014,08,10,14,55,26.20
2014,08,10,14,56,26.10
2014,08,10,14,57,26.10
2014,08,10,14,58,26.10
2014,08,10,14,59,26.20
2014,08,10,15,00,26.20
2014,08,10,15,01,26.30
2014,08,10,15,02,26.30
2014,08,10,15,03,26.40
2014,08,10,15,04,26.50
2014,08,10,15,05,26.60
2014,08,10,15,06,26.70
2014,08,10,15,07,26.80
2014,08,10,15,08,26.90
2014,08,10,15,09,27.00
2014,08,10,15,10,27.00
2014,08,10,15,11,27.10
2014,08,10,15,12,27.00
2014,08,10,15,13,27.00
2014,08,10,15,14,26.90
2014,08,10,15,15,26.90
2014,08,10,15,16,27.00
2014,08,10,15,17,27.00
2014,08,10,15,18,27.00
2014,08,10,15,19,26.90
2014,08,10,15,20,26.80
2014,08,10,15,21,26.70
2014,08,10,15,22,26.60
2014,08,10,15,23,26.50
2014,08,10,15,24,26.30
2014,08,10,15,25,26.30
2014,08,10,15,26,26.30
2014,08,10,15,27,26.40
2014,08,10,15,28,26.40
2014,08,10,15,29,26.50
2014,08,10,15,30,26.60
2014,08,10,15,31,26.60
2014,08,10,15,32,26.50
2014,08,10,15,33,26.40
2014,08,10,15,34,26.40
2014,08,10,15,35,26.40
2014,08,10,15,36,26.50
2014,08,10,15,37,26.60
2014,08,10,15,38,26.60
2014,08,10,15,39,26.70
2014,08,10,15,40,26.80
2014,08,10,15,41,26.80
2014,08,10,15,42,26.90
2014,08,10,15,43,26.90
2014,08,10,15,44,27.00
2014,08,10,15,45,27.00
2014,08,10,15,46,27.10
2014,08,10,15,47,27.20
2014,08,10,15,48,27.20
2014,08,10,15,49,27.20
2014,08,10,15,50,27.30
2014,08,10,15,51,27.20
2014,08,10,15,52,27.20
2014,08,10,15,53,27.10
2014,08,10,15,54,27.00
2014,08,10,15,55,27.00
2014,08,10,15,56,26.90
2014,08,10,15,57,26.90
2014,08,10,15,58,26.90
2014,08,10,15,59,26.90
2014,08,10,16,00,27.00
2014,08,10,16,01,27.00
2014,08,10,16,02,27.10
2014,08,10,16,03,27.10
2014,08,10,16,04,27.00
2014,08,10,16,05,27.00
2014,08,10,16,06,26.90
2014,08,10,16,07,26.90
2014,08,10,16,08,27.00
2014,08,10,16,09,27.00
2014,08,10,16,10,27.00
2014,08,10,16,11,26.90
2014,08,10,16,12,26.90
2014,08,10,16,13,26.90
2014,08,10,16,14,27.00
2014,08,10,16,15,27.10
2014,08,10,16,16,27.00
2014,08,10,16,17,27.00
2014,08,10,16,18,27.00
2014,08,10,16,19,27.10
2014,08,10,16,20,27.00
2014,08,10,16,21,27.00
2014,08,10,16,22,26.90
2014,08,10,16,23,27.00
2014,08,10,16,24,27.00
2014,08,10,16,25,27.20
2014,08,10,16,26,27.20
2014,08,10,16,27,27.30
2014,08,10,16,28,27.30
2014,08,10,16,29,27.40
2014,08,10,16,30,27.40
2014,08,10,16,31,27.50
2014,08,10,16,32,27.60
2014,08,10,16,33,27.60
2014,08,10,16,34,27.60
2014,08,10,16,35,27.70
2014,08,10,16,36,27.80
2014,08,10,16,37,27.70
2014,08,10,16,38,27.70
2014,08,10,16,39,27.70
2014,08,10,16,40,27.60
2014,08,10,16,41,27.60
2014,08,10,16,42,27.60
2014,08,10,16,43,27.60
2014,08,10,16,44,27.50
2014,08,10,16,45,27.60
2014,08,10,16,46,27.60
2014,08,10,16,47,27.60
2014,08,10,16,48,27.70
2014,08,10,16,49,27.60
2014,08,10,16,50,27.60
2014,08,10,16,51,27.50
2014,08,10,16,52,27.40
2014,08,10,16,53,27.40
2014,08,10,16,54,27.40
2014,08,10,16,55,27.40
2014,08,10,16,56,27.40
2014,08,10,16,57,27.40
2014,08,10,16,58,27.50
2014,08,10,16,59,27.50
2014,08,10,17,00,27.60
2014,08,10,17,01,27.70
2014,08,10,17,02,27.80
2014,08,10,17,03,27.80
2014,08,10,17,04,27.80
2014,08,10,17,05,27.80
2014,08,10,17,06,27.80
2014,08,10,17,07,27.70
2014,08,10,17,08,27.60
2014,08,10,17,09,27.40
2014,08,10,17,10,27.30
2014,08,10,17,11,27.20
2014,08,10,17,12,27.10
2014,08,10,17,13,27.00
2014,08,10,17,14,26.90
2014,08,10,17,15,26.80
2014,08,10,17,16,26.60
2014,08,10,17,17,26.50
2014,08,10,17,18,26.50
2014,08,10,17,19,26.40